Location: Góry Miechowskie
(50.3599°N, 20.1803°E)
Time: 21:46:26
(UTC+00:00)

Tiros 1 despin weight - Pass Details

Date: 16 September 2024
Orbit: 572 x 614 km, 48.2° (Epoch: 12 October)

Event Time Altitude Azimuth Distance (km) Brightness Sun altitude
Rises 00:39:34 0° 196° (SSW) 2,852 - -30.7°
Reaches altitude 10° 00:42:46 10° 173° (S) 1,960 - -30.4°
Maximum altitude 00:45:13 15° 140° (SE) 1,690 - -30.1°
Exits shadow 00:47:19 11° 111° (ESE) 1,902 ? -29.9°
Drops below altitude 10° 00:47:40 10° 107° (ESE) 1,975 ? -29.9°
Sets 00:50:54 0° 83° (E) 2,887 ? -29.6°
